Location: Goettingen
(51.5300°N, 9.9433°E)
Time: 07:09:43
(UTC+01:00)

ISS - Pass Details

Date: 02 December 2021
Orbit: 417 x 422 km, 51.6° (Epoch: 04 December)

Event Time Altitude Azimuth Distance (km) Brightness Sun altitude
Rises 17:55:23 0° 280° (W) 2,379 1.2 -14.9°
Reaches altitude 10° 17:57:29 10° 279° (W) 1,513 0.1 -15.2°
Maximum altitude 18:00:52 74° 194° (SSW) 444 -3.6 -15.8°
Enters shadow 18:02:21 31° 115° (ESE) 772 -2.8 -16.0°
